Jefferson, NC

12:20 PM EDT on October 22, 2017 (GMT -0400)
Ashe County

Weather History for KGEV - October, 2010

Change the Weather History Date:

Tuesday, October 12, 2010

  Actual Average Record
Temperature  
Mean Temperature 62 °F -  
Max Temperature 73 °F 65 °F 80 °F (1969)
Min Temperature 51 °F 42 °F 30 °F (1976)
Degree Days  
Heating Degree Days 3    
Growing Degree Days 12 (Base 50)    
Moisture  
Dew Point 42 °F    
Average Humidity 46    
Maximum Humidity 71    
Minimum Humidity 31    
Precipitation  
Precipitation 0.00 in - - ()
Sea Level Pressure  
Sea Level Pressure 30.00 in    
Wind  
Wind Speed 3 mph (West)    
Max Wind Speed 13 mph    
Max Gust Speed 18 mph    
Visibility 10 miles    
Events      
Averages and records for this station are not official NWS values.
T = Trace of Precipitation, MM = Missing Value Source: NWS Daily Summary

Daily Weather History Graph

Daily Weather History Graph

Search for Another Location

Airport or City:

Trip Planner

Search our weather history database for the weather conditions in past years. The results will help you decide how hot, cold, wet, or windy it might be!

Date:

Astronomy

Oct. 12, 2010 Rise Set
Actual Time 7:30 AM EDT 6:53 PM EDT
Civil Twilight 7:04 AM EDT 7:19 PM EDT
Nautical Twilight 6:34 AM EDT 7:49 PM EDT
Astronomical Twilight 6:04 AM EDT 8:19 PM EDT
Moon 12:52 PM EDT (10/12) 10:37 PM EDT (10/12)
Length of Visible Light 12h 15m
Length of Day
11h 23m
Waxing Crescent, 28% of the Moon is Illuminated
Oct 12
Waxing Crescent
Oct 14
First Quarter
Oct 22
Full
Oct 30
Last Quarter
Nov 6
New

Hourly Weather History & Observations

Time (EDT) Temp. Dew Point Humidity Pressure Visibility Wind Dir Wind Speed Gust Speed Precip Events Conditions
12:01 AM 57.2 °F 42.8 °F 59% 30.02 in 5.0 mi Calm Calm - N/A   Haze
12:21 AM 60.8 °F 41.0 °F 48% 30.02 in 5.0 mi Calm Calm - N/A   Haze
12:41 AM 59.0 °F 39.2 °F 48% 30.01 in 7.0 mi Calm Calm - N/A   Clear
1:01 AM 57.2 °F 41.0 °F 55% 30.01 in 10.0 mi Calm Calm - N/A   Clear
1:21 AM 55.4 °F 41.0 °F 58% 30.01 in 10.0 mi Calm Calm - N/A   Clear
1:41 AM 53.6 °F 42.8 °F 67% 30.00 in 10.0 mi Calm Calm - N/A   Clear
2:01 AM 55.4 °F 42.8 °F 63% 30.00 in 10.0 mi Calm Calm - N/A   Clear
2:21 AM 55.4 °F 42.8 °F 63% 30.00 in 10.0 mi Calm Calm - N/A   Clear
2:41 AM 57.2 °F 41.0 °F 55% 30.00 in 10.0 mi Calm Calm - N/A   Clear
3:01 AM 57.2 °F 41.0 °F 55% 30.00 in 10.0 mi Calm Calm - N/A   Clear
3:21 AM 51.8 °F 42.8 °F 71% 30.00 in 10.0 mi Calm Calm - N/A   Clear
3:43 AM 55.4 °F 41.0 °F 58% 30.00 in 10.0 mi Calm Calm - N/A   Clear
4:01 AM 55.4 °F 41.0 °F 58% 29.99 in 10.0 mi SW 3.5 mph - N/A   Clear
4:21 AM 53.6 °F 41.0 °F 62% 29.99 in 10.0 mi WNW 3.5 mph - N/A   Clear
4:41 AM 55.4 °F 42.8 °F 63% 29.99 in 10.0 mi Calm Calm - N/A   Clear
5:01 AM 57.2 °F 41.0 °F 55% 30.00 in 10.0 mi Calm Calm - N/A   Clear
5:21 AM 57.2 °F 41.0 °F 55% 30.00 in 10.0 mi Calm Calm - N/A   Clear
5:42 AM 60.8 °F 42.8 °F 52% 30.00 in 10.0 mi WNW 5.8 mph - N/A   Clear
6:01 AM 60.8 °F 42.8 °F 52% 29.99 in 10.0 mi WNW 5.8 mph - N/A   Clear
6:21 AM 60.8 °F 42.8 °F 52% 30.00 in 10.0 mi WNW 4.6 mph - N/A   Clear
6:41 AM 59.0 °F 42.8 °F 55% 30.00 in 10.0 mi WNW 6.9 mph - N/A   Clear
7:01 AM 60.8 °F 42.8 °F 52% 30.00 in 10.0 mi WNW 6.9 mph - N/A   Clear
7:21 AM 59.0 °F 42.8 °F 55% 30.00 in 10.0 mi NW 3.5 mph - N/A   Clear
7:41 AM 59.0 °F 41.0 °F 51% 30.01 in 10.0 mi WNW 5.8 mph - N/A   Clear
8:01 AM 60.8 °F 41.0 °F 48% 30.00 in 10.0 mi Calm Calm - N/A   Clear
8:21 AM 62.6 °F 41.0 °F 45% 30.01 in 10.0 mi Calm Calm - N/A   Clear
8:41 AM 59.0 °F 46.4 °F 63% 30.01 in 10.0 mi Calm Calm - N/A   Clear
9:01 AM 62.6 °F 44.6 °F 52% 30.01 in 10.0 mi Calm Calm - N/A   Clear
9:21 AM 57.2 °F 44.6 °F 63% 30.02 in 10.0 mi WSW 3.5 mph - N/A   Clear
9:41 AM 62.6 °F 48.2 °F 59% 30.02 in 10.0 mi Calm Calm - N/A   Clear
10:01 AM 64.4 °F 44.6 °F 49% 30.02 in 10.0 mi Calm Calm - N/A   Clear
10:21 AM 68.0 °F 42.8 °F 40% 30.02 in 10.0 mi WSW 3.5 mph - N/A   Clear
10:41 AM 66.2 °F 50.0 °F 56% 30.03 in 10.0 mi Calm Calm - N/A   Clear
11:01 AM 69.8 °F 42.8 °F 38% 30.02 in 10.0 mi West 5.8 mph - N/A   Clear
11:21 AM 71.6 °F 41.0 °F 33% 30.03 in 10.0 mi West 10.4 mph - N/A   Clear
11:41 AM 71.6 °F 42.8 °F 35% 30.04 in 10.0 mi West 9.2 mph - N/A   Clear
12:01 PM 69.8 °F 41.0 °F 35% 30.03 in 10.0 mi West 4.6 mph - N/A   Clear
12:21 PM 71.6 °F 41.0 °F 33% 30.03 in 10.0 mi West 10.4 mph 16.1 mph N/A   Clear
12:41 PM 71.6 °F 41.0 °F 33% 30.03 in 10.0 mi West 9.2 mph 16.1 mph N/A   Clear
1:01 PM 71.6 °F 41.0 °F 33% 30.02 in 10.0 mi West 12.7 mph - N/A   Clear
1:21 PM 73.4 °F 41.0 °F 31% 30.02 in 10.0 mi West 6.9 mph - N/A   Clear
1:41 PM 73.4 °F 41.0 °F 31% 30.02 in 10.0 mi WNW 4.6 mph - N/A   Scattered Clouds
2:01 PM 73.4 °F 41.0 °F 31% 30.01 in 10.0 mi WSW 8.1 mph - N/A   Clear
2:21 PM 73.4 °F 41.0 °F 31% 30.00 in 10.0 mi West 6.9 mph 16.1 mph N/A   Mostly Cloudy
2:41 PM 73.4 °F 41.0 °F 31% 29.99 in 10.0 mi WSW 5.8 mph 18.4 mph N/A   Scattered Clouds
3:02 PM 73.4 °F 41.0 °F 31% 29.99 in 10.0 mi West 8.1 mph 17.3 mph N/A   Scattered Clouds
3:21 PM 73.4 °F 41.0 °F 31% 29.98 in 10.0 mi West 11.5 mph - N/A   Clear
3:41 PM 73.4 °F 41.0 °F 31% 29.98 in 10.0 mi WNW 8.1 mph - N/A   Scattered Clouds
4:01 PM 73.4 °F 41.0 °F 31% 29.98 in 10.0 mi West 8.1 mph 16.1 mph N/A   Mostly Cloudy
4:21 PM 73.4 °F 41.0 °F 31% 29.98 in 10.0 mi WNW 4.6 mph - N/A   Scattered Clouds
4:41 PM 71.6 °F 39.2 °F 31% 29.98 in 10.0 mi West 6.9 mph - N/A   Clear
5:01 PM 71.6 °F 41.0 °F 33% 29.98 in 10.0 mi WNW 8.1 mph - N/A   Scattered Clouds
5:21 PM 69.8 °F 41.0 °F 35% 29.98 in 10.0 mi WNW 8.1 mph - N/A   Scattered Clouds
5:41 PM 69.8 °F 41.0 °F 35% 29.99 in 10.0 mi NW 10.4 mph - N/A   Mostly Cloudy
6:03 PM 69.8 °F 41.0 °F 35% 29.99 in 10.0 mi WNW 5.8 mph - N/A   Mostly Cloudy
6:21 PM 68.0 °F 41.0 °F 37% 29.99 in 10.0 mi West 9.2 mph - N/A   Mostly Cloudy
6:41 PM 68.0 °F 42.8 °F 40% 30.00 in 10.0 mi West 8.1 mph - N/A   Overcast
7:01 PM 68.0 °F 44.6 °F 43% 30.01 in 10.0 mi WNW 8.1 mph 17.3 mph N/A   Overcast
7:21 PM 66.2 °F 46.4 °F 49% 30.01 in 10.0 mi West 9.2 mph - N/A   Overcast
7:41 PM 66.2 °F 46.4 °F 49% 30.01 in 10.0 mi WNW 8.1 mph - N/A   Overcast
8:01 PM 64.4 °F 46.4 °F 52% 30.02 in 10.0 mi NW 6.9 mph - N/A   Overcast
8:21 PM 64.4 °F 48.2 °F 56% 30.02 in 10.0 mi WSW 5.8 mph - N/A   Scattered Clouds
8:41 PM 64.4 °F 46.4 °F 52% 30.02 in 10.0 mi West 11.5 mph 17.3 mph N/A   Scattered Clouds
9:01 PM 64.4 °F 44.6 °F 49% 30.02 in 10.0 mi WNW 6.9 mph 19.6 mph N/A   Mostly Cloudy
9:21 PM 64.4 °F 44.6 °F 49% 30.02 in 10.0 mi NW 9.2 mph 23.0 mph N/A   Overcast
9:41 PM 64.4 °F 44.6 °F 49% 30.02 in 10.0 mi NW 9.2 mph 16.1 mph N/A   Mostly Cloudy
10:01 PM 64.4 °F 44.6 °F 49% 30.02 in 10.0 mi WNW 10.4 mph 17.3 mph N/A   Mostly Cloudy
10:21 PM 62.6 °F 46.4 °F 55% 30.03 in 10.0 mi West 13.8 mph 18.4 mph N/A   Overcast
10:41 PM 62.6 °F 46.4 °F 55% 30.04 in 10.0 mi WNW 13.8 mph 20.7 mph N/A   Overcast
11:01 PM 62.6 °F 46.4 °F 55% 30.04 in 10.0 mi West 15.0 mph 25.3 mph N/A   Overcast
11:21 PM 60.8 °F 48.2 °F 63% 30.04 in 10.0 mi West 13.8 mph 19.6 mph N/A   Overcast
11:41 PM 60.8 °F 48.2 °F 63% 30.04 in 10.0 mi West 15.0 mph 23.0 mph N/A   Overcast